一网星座-0341星 (ONEWEB-0341 )

导读 | 星芒AI

ONEWE-0341 是 OneWeb 卫星通信星座计划中的一颗低轨通信卫星,旨在为全球提供高速互联网服务。该卫星由空中客车防务与航天公司制造,采用统一的卫星平台,具备高容量和高效率的通信能力。它于2022年通过火箭发射进入近地轨道,加入 OneWeb 的卫星网络,支持偏远和未覆盖地区的宽带接入。该星座计划由数百颗卫星组成,致力于实现全球无缝连接,推动数字包容性发展。

基本信息
目录编号:
49207
目录名称:
ONEWEB-0341
国际标识:
2021-083X
轨道中心:
EARTH
卫星名称:
一网星座-0341星
卫星全名:
一网星座-0341星 (ONEWEB-0341 )
卫星状态:
在轨 (已飞行1553 天)
发射日期:
2021-09-14 UTC
国别 :
英国 (GB)
星等 :
--
轨道信息
数据来源 国际轨道数据
星历时间: 2025-12-15T02:15:36+0800
1天前
查看轨道信息
半长轴: 7567.878km
偏心率: 0.0001233
轨道倾角: 87.918°
近地点辐角 91.112°
升交点赤经 12.091°
平近点角 269.016°
近地点: 1188.809km
远地点: 1190.677km
周期: 109.200分钟
每日圈数: 13.186866
详细信息
平衡模式:
三轴稳定
覆盖范围:
全球
运营商:
一网卫星公司
运营商所在国:
英国
制造商(研发单位):
一网卫星公司
制造商所在国:
英国
使用方式:
暂无
卫星简介
OneWeb卫星网络由648颗重约125公斤的微型卫星组成,运行在1200公里的轨道上。 每颗卫星都能够提供至少每秒8千兆位的吞吐量,以使用其高吞吐量的Ku频段有效载荷为家庭和移动平台提供互联网接入。该卫星仍在工作。
2D轨道图
3D轨道图
轨道高度分析图
轨道倾角分析图
轨道综合分析图
查看轨道综合分析图